Regional Weather Roundup
Issued by NWS Sioux Falls, SD

Home | Current Version | Previous Version | Graphics & Text | Print | Product List | Glossary Off
Versions: 1 2 3 4 5 6 7 8 9 10 11 12 13 14 15 16 17 18 19 20 21 22 23 24 25 26 27 28 29 30 31 32 33 34 35 36 37 38 39 40 41 42 43 44 45 46 47 48 49 50

000
ASUS43 KFSD 271702
RWRFSD

WEATHER ROUNDUP FOR SE SOUTH DAKOTA/SW MINNESOTA/NW IOWA
NATIONAL WEATHER SERVICE SIOUX FALLS SD
1100 AM CST SAT DEC 27 2014

NOTE: "FAIR" INDICATES FEW OR NO CLOUDS BELOW 12,000 FEET WITH NO
SIGNIFICANT WEATHER AND OR OBSTRUCTIONS TO VISIBILITY.


SDZ038>040-050-052>070-271800-
SOUTHEAST SOUTH DAKOTA

CITY           SKY/WX    TMP DP  RH WIND       PRES   REMARKS
CHAMBERLAIN    NOT AVBL
HURON          SUNNY      9   6  88 SW6       30.21R WCI  -1
MADISON        FLURRIES   9   9 100 W8        30.16R WCI  -4
MITCHELL       SUNNY     13   8  81 W9        30.24R WCI   1
SIOUX FALLS    SUNNY     13   9  84 W6        30.21R WCI   4
WINNER         FAIR      19  10  68 W10       30.20R WCI   7
YANKTON        SUNNY     12   7  79 W7        30.27R WCI   2
$$

MNZ071-072-080-081-089-090-097-098-271800-
SOUTHWEST MINNESOTA

CITY           SKY/WX    TMP DP  RH WIND       PRES   REMARKS
FAIRMONT       CLOUDY    18  10  73 NW16      30.15R WCI   3
JACKSON        SUNNY     18   9  68 NW16      30.15R WCI   3
LUVERNE        SUNNY     18  10  73 W9        30.21R WCI   6
MARSHALL       SUNNY     12   5  73 NW6       30.17S WCI   3
MONTEVIDEO     SUNNY     16  12  86 NW8       30.17F WCI   5
PIPESTONE        N/A     12   9  85 W8        30.15R WCI   1
REDWOOD FALLS  SUNNY     13   6  74 W14       30.17R WCI  -2
TRACY          SUNNY     14  10  82 NW7       30.17R WCI   4
WINDOM         SUNNY     14   9  79 W13       30.15R WCI   0
WORTHINGTON    SUNNY     18 -27  12 W10       30.17R WCI   6
$$

IAZ001>003-012>014-020>022-031-032-NEZ013-014-SDZ071-271800-
NORTHWEST IOWA

CITY           SKY/WX    TMP DP  RH WIND       PRES   REMARKS
CHEROKEE       CLOUDY    18  15  88 NW8       30.22R WCI   8
DENISON        CLOUDY    21  18  86 NW10      30.20F WCI  10
ESTHERVILLE    SUNNY     15   9  76 NW16      30.16R WCI  -1
LE MARS        CLOUDY    18  14  86 NW8       30.25R WCI   7
ORANGE CITY    LGT SNOW  18  16  93 W12       30.20R WCI   5
SIOUX CITY     MOSUNNY   20  13  74 NW13      30.25R WCI   7
SPENCER        SUNNY     19  11  70 W14       30.19R WCI   6
$$

ABBREVIATIONS USED IN REMARKS
   TC - TEMPERATURE IN CELSIUS
  WCI - WIND CHILL INDEX
   HX - HEAT INDEX
  VSB - VISIBILITY




USA.gov is the U.S. government's official web portal to all federal, state and local government web resources and services.